カタログに戻る

STARLINK-36323

運用中通信VLEO
NORAD 68259·PAYLOAD·🇺🇸 United States

打ち上げ Mar 17, 2026 から Vandenberg Space Force Base

Loading…

次のパス (今後24時間)

TLE

最新Source: CelesTrak SupGP

元期: Sep 15, 2026, 03:28 UTC

1 68259C 26054AD  26258.14493056  .00040844  00000+0  12067-2 0  2587
2 68259  53.1571 126.8575 0001297  83.7565 120.5768 15.34371404    13

AllMySatでSTARLINK-36323をリアルタイム追跡

Download on the App Store